[[[{"header":{"parameterUnit":"kt","parameterCategory":2,"dx":1,"dy":1,"la1":30.253999710083008,"la2":30.299108505249023,"lo1":-89.0895004272461,"lo2":-89.04439544677734,"nx":28,"ny":28,"refTime":"2022-10-03T21:00:00:Z","depth":0,"parameterNumber":1,"parameterNumberName":"U-component_of_WINDS"},"data":[-3.4586,-3.4673,-3.4659,-3.4752,-3.4754,-3.4815,-3.4832,-3.4852,-3.4865,-3.4935,-3.4972,-3.4966,-3.4972,-3.5013,-3.5052,-3.5048,-3.5068,-3.5109,-3.5098,-3.4924,-3.4899,-3.4875,-3.4855,-3.5113,-3.5113,-3.5283,-3.5284,-3.5286,-3.4461,-3.4465,-3.4509,-3.4542,-3.458,-3.4531,-3.4553,-3.4588,-3.4643,-3.4658,-3.4694,-3.4755,-3.48,-3.4791,-3.4832,-3.4872,-3.4852,-3.4885,-3.4884,-3.4886,-3.4698,-3.4676,-3.4901,-3.4901,-3.4901,-3.4901,-3.4901,-3.4901,-3.4229,-3.4282,-3.4294,-3.4341,-3.4353,-3.4376,-3.4423,-3.4414,-3.4456,-3.4498,-3.447,-3.4532,-3.4544,-3.4585,-3.4595,-3.4643,-3.4604,-3.4635,-3.4644,-3.4653,-3.4667,-3.443,-3.4648,-3.4648,-3.4647,-3.4646,-3.4646,0,-3.4056,-3.4041,-3.4082,-3.4119,-3.4152,-3.4179,-3.4201,-3.423,-3.419,-3.4227,-3.4279,-3.4306,-3.4359,-3.4407,-3.4441,-3.4444,-3.4399,-3.4391,-3.4413,-3.443,-3.4441,-3.444,-3.4137,-3.4385,-3.4383,-3.4381,-3.438,-3.4379,-3.3825,-3.3887,-3.3891,-3.3922,-3.393,-3.398,-3.4006,-3.3966,-3.3996,-3.4017,-3.4065,-3.4111,-3.4146,-3.4231,-3.4219,-3.4259,-3.4238,-3.4335,-3.4243,-3.4256,-3.4243,-3.4242,-3.4249,-3.4355,-3.4358,-3.436,-3.4363,0,-3.3697,-3.3671,-3.3762,-3.3759,-3.376,-3.3827,-3.3825,-3.3874,-3.3859,-3.3926,-3.3939,-3.3916,-3.3967,-3.3939,-3.3991,-3.3975,-3.4086,-3.4062,-3.4083,-3.4078,-3.4164,-3.4158,-3.4444,-3.448,-3.4208,-3.4211,-3.4213,0,-3.3491,-3.3573,-3.3531,-3.3585,-3.3675,-3.3632,-3.3722,-3.3718,-3.3727,-3.3779,-3.3721,-3.3771,-3.3726,-3.3773,-3.3749,-3.3834,-3.3843,-3.3837,-3.383,-3.3844,-3.3846,-3.3863,-3.3852,-3.3808,-3.3807,-3.3805,-3.3804,0,-3.3296,-3.3368,-3.3455,-3.3467,-3.3472,-3.3514,-3.3518,-3.3527,-3.3553,-3.3582,-3.3599,-3.3636,-3.3657,-3.3686,-3.3656,-3.3595,-3.3758,-3.3669,-3.3752,-3.3754,-3.3793,-3.3792,-3.4048,-3.3803,-3.3802,-3.3802,-3.3801,0,-3.3127,-3.3157,-3.3286,-3.3289,-3.331,-3.3366,-3.34,-3.3441,-3.3455,-3.3444,-3.3466,-3.3425,-3.3495,-3.3409,-3.3505,-3.3435,-3.3459,-3.3459,-3.3464,-3.3472,-3.3378,-3.3531,-3.3775,-3.3802,-3.3475,-3.3472,-3.347,0,-3.2913,-3.3035,-3.2999,-3.3122,-3.3175,-3.3107,-3.3168,-3.3182,-3.3172,-3.3215,-3.3203,-3.3253,-3.3182,-3.3194,-3.3245,-3.3236,-3.3326,-3.3222,-3.3288,-3.3291,-3.329,-3.3514,-3.3559,-3.3724,-3.3435,-3.3438,-3.3441,0,-3.2743,-3.2748,-3.2773,-3.2786,-3.2797,-3.284,-3.291,-3.295,-3.2981,-3.3001,-3.3061,-3.3127,-3.3078,-3.3098,-3.3067,-3.3122,-3.3263,-3.3062,-3.3062,-3.3102,-3.3413,-3.3457,-3.3484,-3.3231,-3.3235,-3.3239,-3.3413,0,-3.25,-3.2557,-3.262,-3.265,-3.2678,-3.2752,-3.2722,-3.2756,-3.2724,-3.2712,-3.2797,-3.28,-3.2841,-3.2863,-3.2832,-3.2965,-3.2939,-3.2886,-3.2803,-3.2948,-3.3005,-3.3028,-3.272,-3.2718,-3.2715,-3.2713,0,0,-3.2303,-3.2384,-3.2342,-3.2409,-3.2431,-3.2359,-3.2442,-3.2454,-3.2482,-3.2499,-3.2451,-3.2547,-3.2552,-3.2659,-3.2702,-3.2717,-3.2739,-3.2689,-3.2878,-3.2897,-3.2914,-3.2975,-3.2999,-3.271,-3.2709,-3.2708,-3.2707,0,-3.2209,-3.2214,-3.2295,-3.2306,-3.2322,-3.2304,-3.2324,-3.2326,-3.2322,-3.2404,-3.2345,-3.2391,-3.2469,-3.2483,-3.25,-3.2674,-3.2629,-3.2688,-3.2794,-3.2857,-3.2878,-3.2897,-3.2962,-3.2985,-3.2702,-3.2702,-3.2702,0,-3.204,-3.2041,-3.2076,-3.2121,-3.213,-3.2185,-3.209,-3.2152,-3.2192,-3.2111,-3.2194,-3.2192,-3.2208,-3.2311,-3.2356,-3.2315,-3.253,-3.2455,-3.2469,-3.2474,-3.2534,-3.2559,-3.2582,-3.228,-3.2279,-3.2278,0,0,-3.1962,-3.2014,-3.2003,-3.2098,-3.2108,-3.2084,-3.2109,-3.2081,-3.2096,-3.2102,-3.2099,-3.2116,-3.216,-3.2191,-3.223,-3.2348,-3.2349,-3.2405,-3.2425,-3.2441,-3.2455,-3.2519,-3.2545,-3.2273,-3.2273,-3.2272,0,0,-3.1926,-3.1917,-3.1882,-3.1989,-3.2005,-3.2001,-3.2061,-3.2019,-3.2051,-3.204,-3.1994,-3.1997,-3.2092,-3.2093,-3.2029,-3.2201,-3.2119,-3.2133,-3.2198,-3.2223,-3.2242,-3.2241,-3.1933,0,0,0,0,0,-3.1814,-3.1918,-3.1886,-3.19,-3.1956,-3.2018,-3.2025,-3.199,-3.1933,-3.1981,-3.1972,-3.1919,-3.2049,-3.1991,-3.2005,-3.2078,-3.2208,-3.2219,-3.223,-3.2341,-3.2367,-3.2389,0,0,0,0,0,0,-3.1819,-3.1836,-3.1883,-3.1884,-3.1896,-3.2014,-3.191,-3.1903,-3.1927,-3.1916,-3.1923,-3.192,-3.1891,-3.1981,-3.1995,-3.2065,-3.1928,-3.2212,-3.2222,-3.2231,-3.235,-3.2371,-3.2389,0,0,0,0,0,-3.1823,-3.1836,-3.1935,-3.1883,-3.1893,-3.1871,-3.1906,-3.1899,-3.1917,-3.1902,-3.1897,-3.1888,-3.1894,-3.1902,-3.1989,-3.206,-3.1919,-3.1924,-3.2219,-3.2226,-3.2233,-3.236,0,0,0,0,0,0,-3.1826,-3.1831,-3.1936,-3.1938,-3.1841,-3.1864,-3.1866,-3.1896,-3.1901,-3.1898,-3.1865,-3.1857,-3.1897,-3.1903,-3.191,-3.206,-3.1911,-3.1916,-3.1919,-3.2224,-3.223,-3.2236,0,0,0,0,0,0,-3.1823,-3.1833,-3.1937,-3.1887,-3.1882,-3.1857,-3.186,-3.1928,-3.1902,-3.1864,-3.1856,-3.1861,-3.1886,-3.1904,-3.191,-3.2017,-3.1905,-3.191,-3.1914,-3.1916,-3.2229,-3.2234,0,0,0,0,0,0,-3.1827,-3.1835,-3.1886,-3.1883,-3.1879,-3.1898,-3.1917,-3.1976,-3.1859,-3.1864,-3.1847,-3.1842,-3.1889,-3.1894,-3.191,-3.2015,-3.2017,-3.1905,-3.1909,-3.1911,-3.1913,0,0,0,0,0,0,0,-3.1829,-3.1783,-3.1925,-3.1879,-3.1876,-3.1956,-3.1957,-3.1957,-3.1858,-3.1853,-3.1848,-3.1844,-3.1877,-3.1882,-3.1888,-3.2014,0,0,-3.1905,-3.1907,0,0,0,0,0,0,0,0,-3.1779,-3.1782,-3.1925,-3.1925,-3.1926,-3.1956,-3.1957,-3.1957,-3.1857,-3.1853,-3.1849,-3.1846,-3.1878,-3.1883,-3.1887,0,0,0,0,0,0,0,0,0,0,0,0,0,0,0,-3.1925,-3.1925,0,-3.1956,-3.1957,-3.1957,-3.1856,-3.1853,-3.185,-3.1847,-3.188,-3.1883,-3.1887,0,0,0,0,0,0,0,0,0,0,0,0,0,0,0,0,0,0,0,0,0,0,0,0,0,0,0,0,0,0,0,0,0,0,0,0,0,0,0,0,0,0,0,0,0,0,0,0,0,0,0,0,0,0,0,0,0,0,0,0,0,0,0,0,0,0,0,0,0]}],[{"header":{"parameterUnit":"kt","parameterCategory":2,"dx":1,"dy":1,"la1":30.253999710083008,"la2":30.299108505249023,"lo1":-89.0895004272461,"lo2":-89.04439544677734,"nx":28,"ny":28,"refTime":"2022-10-03T21:00:00:Z","depth":0,"parameterNumber":2,"parameterNumberName":"V-component_of_WINDS"},"data":[-8.5481,-8.5594,-8.5593,-8.572,-8.574,-8.5825,-8.5855,-8.5892,-8.592,-8.6019,-8.6075,-8.6081,-8.6106,-8.6169,-8.6227,-8.6227,-8.6252,-8.6295,-8.6288,-8.6104,-8.6078,-8.6053,-8.6028,-8.63,-8.63,-8.6481,-8.6483,-8.6484,-8.5348,-8.537,-8.5437,-8.5501,-8.5557,-8.5516,-8.5561,-8.561,-8.5687,-8.5721,-8.5776,-8.5861,-8.5926,-8.5935,-8.5997,-8.6046,-8.6029,-8.6063,-8.606,-8.6064,-8.5866,-8.584,-8.6076,-8.6076,-8.6076,-8.6076,-8.6076,-8.6076,-8.5107,-8.5174,-8.5212,-8.5284,-8.5315,-8.5356,-8.5419,-8.5426,-8.5489,-8.5555,-8.5537,-8.5621,-8.5653,-8.5723,-8.5744,-8.5808,-8.5769,-8.5804,-8.5813,-8.5823,-8.5835,-8.5579,-8.5818,-8.5817,-8.5816,-8.5816,-8.5815,0,-8.493,-8.4924,-8.4987,-8.5051,-8.5102,-8.515,-8.5192,-8.523,-8.5212,-8.5263,-8.5337,-8.5379,-8.5459,-8.5526,-8.5581,-8.5595,-8.5554,-8.5548,-8.5573,-8.5585,-8.559,-8.559,-8.5269,-8.5542,-8.5539,-8.5537,-8.5536,-8.5535,-8.4687,-8.4765,-8.4802,-8.4847,-8.487,-8.4941,-8.4982,-8.496,-8.5004,-8.505,-8.5108,-8.5175,-8.5228,-8.5344,-8.5346,-8.5405,-8.5385,-8.549,-8.5393,-8.5402,-8.5389,-8.5385,-8.5393,-8.551,-8.5513,-8.5516,-8.5518,0,-8.4552,-8.4547,-8.4666,-8.4693,-8.4702,-8.4784,-8.4806,-8.4869,-8.4868,-8.4955,-8.4974,-8.4971,-8.5041,-8.5027,-8.5103,-8.5094,-8.5225,-8.5204,-8.5215,-8.5211,-8.5304,-8.5297,-8.5608,-8.5648,-8.5364,-8.5366,-8.5369,0,-8.4343,-8.4445,-8.4432,-8.4502,-8.4614,-8.4589,-8.47,-8.4709,-8.4737,-8.4805,-8.4757,-8.4821,-8.4792,-8.4854,-8.484,-8.4944,-8.4957,-8.4956,-8.4951,-8.4962,-8.4962,-8.4984,-8.4971,-8.4935,-8.4933,-8.4932,-8.4931,0,-8.4132,-8.4243,-8.4355,-8.4379,-8.4417,-8.4469,-8.4487,-8.4516,-8.4555,-8.4603,-8.4628,-8.4685,-8.4716,-8.4759,-8.4741,-8.4676,-8.4867,-8.4774,-8.4866,-8.4867,-8.4909,-8.4907,-8.5186,-8.4929,-8.4928,-8.4928,-8.4927,0,-8.3963,-8.4016,-8.4178,-8.4209,-8.4238,-8.4311,-8.4367,-8.4425,-8.4459,-8.4456,-8.4492,-8.4458,-8.4547,-8.4456,-8.4578,-8.4499,-8.4532,-8.4539,-8.4545,-8.4553,-8.4452,-8.4613,-8.4879,-8.4907,-8.4559,-8.4556,-8.4553,0,-8.3724,-8.3886,-8.3866,-8.402,-8.4093,-8.4036,-8.4115,-8.4146,-8.4148,-8.4208,-8.4208,-8.4275,-8.4204,-8.4223,-8.4285,-8.4287,-8.4389,-8.4273,-8.4357,-8.4361,-8.4353,-8.4597,-8.4641,-8.4822,-8.4514,-8.4518,-8.4521,0,-8.3537,-8.3583,-8.3612,-8.3639,-8.3678,-8.3737,-8.3828,-8.389,-8.3932,-8.3971,-8.4046,-8.4138,-8.4089,-8.412,-8.4097,-8.4163,-8.4319,-8.41,-8.41,-8.4141,-8.4492,-8.4534,-8.4564,-8.4289,-8.4294,-8.4297,-8.449,0,-8.3287,-8.3366,-8.3443,-8.3502,-8.3545,-8.3639,-8.3626,-8.3673,-8.3648,-8.3647,-8.3756,-8.3775,-8.3835,-8.3864,-8.3839,-8.3994,-8.3965,-8.3911,-8.3821,-8.3981,-8.4044,-8.407,-8.3729,-8.3726,-8.3724,-8.3722,0,0,-8.3059,-8.3173,-8.3147,-8.3235,-8.3271,-8.3209,-8.3311,-8.3337,-8.3391,-8.3416,-8.3366,-8.35,-8.3517,-8.365,-8.3698,-8.3722,-8.3748,-8.3692,-8.3905,-8.3925,-8.3944,-8.4012,-8.4039,-8.3718,-8.3717,-8.3716,-8.3716,0,-8.2965,-8.2989,-8.3091,-8.3118,-8.3157,-8.3151,-8.3176,-8.3202,-8.3206,-8.3312,-8.3257,-8.3319,-8.3425,-8.3452,-8.3479,-8.3676,-8.363,-8.3695,-8.3807,-8.3882,-8.3906,-8.3926,-8.3998,-8.4024,-8.371,-8.371,-8.371,0,-8.2781,-8.2802,-8.285,-8.2927,-8.2951,-8.3026,-8.293,-8.3012,-8.3066,-8.2991,-8.3096,-8.3104,-8.3137,-8.3263,-8.3319,-8.3275,-8.3524,-8.3441,-8.3455,-8.3461,-8.3533,-8.3561,-8.3586,-8.3254,-8.3253,-8.3251,0,0,-8.2701,-8.2774,-8.2788,-8.2906,-8.2925,-8.2918,-8.2955,-8.2934,-8.2966,-8.2979,-8.2989,-8.3021,-8.3082,-8.3123,-8.3179,-8.332,-8.3324,-8.3386,-8.3408,-8.3425,-8.3441,-8.3517,-8.3545,-8.3246,-8.3246,-8.3245,0,0,-8.2662,-8.2684,-8.2654,-8.2789,-8.2824,-8.2843,-8.2915,-8.2877,-8.2927,-8.2914,-8.2879,-8.2885,-8.3003,-8.3012,-8.2938,-8.3147,-8.3058,-8.3076,-8.3137,-8.3164,-8.3185,-8.318,-8.284,0,0,0,0,0,-8.2559,-8.2682,-8.2654,-8.2675,-8.277,-8.2859,-8.2871,-8.2846,-8.2785,-8.2843,-8.2845,-8.2793,-8.2965,-8.2899,-8.2919,-8.3001,-8.3172,-8.3186,-8.3198,-8.331,-8.3338,-8.3362,0,0,0,0,0,0,-8.2567,-8.2593,-8.2651,-8.2676,-8.2697,-8.2854,-8.2746,-8.2742,-8.2779,-8.2768,-8.2794,-8.2793,-8.2772,-8.2887,-8.2905,-8.2984,-8.2834,-8.3178,-8.3189,-8.3199,-8.3319,-8.3342,-8.3362,0,0,0,0,0,-8.2573,-8.2594,-8.2754,-8.2674,-8.2693,-8.269,-8.2741,-8.2737,-8.2764,-8.2767,-8.2765,-8.2743,-8.2775,-8.2788,-8.2898,-8.2977,-8.2821,-8.2828,-8.3185,-8.3193,-8.3201,-8.3331,0,0,0,0,0,0,-8.2578,-8.259,-8.2757,-8.2762,-8.2626,-8.268,-8.2688,-8.2733,-8.2761,-8.276,-8.2714,-8.2705,-8.2779,-8.2788,-8.2799,-8.2976,-8.2811,-8.2818,-8.2822,-8.3191,-8.3198,-8.3204,0,0,0,0,0,0,-8.2579,-8.2594,-8.2759,-8.27,-8.2698,-8.2672,-8.2679,-8.2767,-8.2762,-8.2705,-8.2699,-8.2709,-8.2762,-8.2789,-8.2797,-8.2935,-8.2803,-8.281,-8.2814,-8.2817,-8.3197,-8.3202,0,0,0,0,0,0,-8.2585,-8.2598,-8.2699,-8.2697,-8.2695,-8.2744,-8.2749,-8.2847,-8.2715,-8.2705,-8.2702,-8.2696,-8.2764,-8.2771,-8.2796,-8.2931,-8.2934,-8.2803,-8.2808,-8.2811,-8.2813,0,0,0,0,0,0,0,-8.259,-8.2506,-8.273,-8.2694,-8.2692,-8.2804,-8.2805,-8.2807,-8.2713,-8.2708,-8.2703,-8.2698,-8.2765,-8.2772,-8.278,-8.2928,0,0,-8.2803,-8.2806,0,0,0,0,0,0,0,0,-8.25,-8.2505,-8.273,-8.2731,-8.2732,-8.2804,-8.2805,-8.2806,-8.2712,-8.2708,-8.2704,-8.27,-8.2767,-8.2773,-8.2779,0,0,0,0,0,0,0,0,0,0,0,0,0,0,0,-8.2731,-8.2731,0,-8.2804,-8.2805,-8.2806,-8.2712,-8.2708,-8.2705,-8.2702,-8.2769,-8.2774,-8.2779,0,0,0,0,0,0,0,0,0,0,0,0,0,0,0,0,0,0,0,0,0,0,0,0,0,0,0,0,0,0,0,0,0,0,0,0,0,0,0,0,0,0,0,0,0,0,0,0,0,0,0,0,0,0,0,0,0,0,0,0,0,0,0,0,0,0,0,0,0]}]]]